Tracking 18980 objects as of 18-Feb-2018
HD Live streaming from Space Station
objects crossing your sky now

CZ-3B DEB

Track CZ-3B DEB now!


NORAD ID: 42461
Int'l Code: 2010-042AC
Perigee: 1,362.8 km
Apogee: 43,408.5 km
Inclination: 23.3 °
Period: 808.8 minutes
Semi major axis: 28756 km
RCS: Unknown
Launch date: September 4, 2010
Source: People's Republic of China (PRC)
Launch site: Xichang Space Center, China (XSC)

Note: This is SATELLITE DEBRIS
aabbcc
Your satellite tracking list
Your tracking list is empty




NASA's NSSDC Master Catalog

Two Line Element Set (TLE):
1 42461U 10042AC  18041.98589383 -.00000285 +00000-0 +00000-0 0  9997
2 42461 023.3029 331.0785 7310615 176.5230 195.4727 01.78031131025166
Source of the keplerian elements: AFSPC